Durant, OK

4:55 AM CDT on April 19, 2018 (GMT -0500)
Eaker

Weather History for KDUA - October, 2012

Change the Weather History Date:

Saturday, October 13, 2012

  Actual Average (KMLC) Record (KMLC)
Temperature  
Mean Temperature 73 °F -  
Max Temperature 82 °F 77 °F 95 °F (1963)
Min Temperature 64 °F 53 °F 32 °F (1977)
Cooling Degree Days 8    
Growing Degree Days 23 (Base 50)    
Moisture  
Dew Point 66 °F    
Average Humidity 79    
Maximum Humidity 100    
Minimum Humidity 61    
Precipitation  
Precipitation 1.87 in - - ()
Sea Level Pressure  
Sea Level Pressure 29.95 in    
Wind  
Wind Speed 13 mph (South)    
Max Wind Speed 32 mph    
Max Gust Speed 53 mph    
Visibility 9 miles    
Events Rain , Thunderstorm    
Averages and records for this station are not official NWS values.
T = Trace of Precipitation, MM = Missing Value Source: NWS Daily Summary

Daily Weather History Graph

Daily Weather History Graph

Search for Another Location

Airport or City:

Trip Planner

Search our weather history database for the weather conditions in past years. The results will help you decide how hot, cold, wet, or windy it might be!

Date:

Astronomy

Oct. 13, 2012 Rise Set
Actual Time 7:29 AM CDT 6:53 PM CDT
Civil Twilight 7:04 AM CDT 7:18 PM CDT
Nautical Twilight 6:35 AM CDT 7:47 PM CDT
Astronomical Twilight 6:06 AM CDT 8:16 PM CDT
Moon 5:24 AM CDT (10/13) 5:35 PM CDT (10/13)
Length of Visible Light 12h 14m
Length of Day
11h 23m
Waning Crescent, 5% of the Moon is Illuminated
Oct 13
Waning Crescent
Oct 15
New
Oct 21
First Quarter
Oct 29
Full
Nov 6
Last Quarter

Hourly Weather History & Observations

Time (CDT) Temp. Heat Index Dew Point Humidity Pressure Visibility Wind Dir Wind Speed Gust Speed Precip Events Conditions
12:15 AM 71.6 °F - 66.2 °F 83% 30.08 in 10.0 mi SSE 9.2 mph - N/A   Clear
12:35 AM 71.6 °F - 64.4 °F 78% 30.08 in 10.0 mi SSE 8.1 mph - N/A   Clear
1:35 AM 69.8 °F - 64.4 °F 83% 30.07 in 10.0 mi South 4.6 mph - N/A   Clear
2:15 AM 68.0 °F - 64.4 °F 88% 30.06 in 7.0 mi SSE 4.6 mph - N/A   Clear
2:35 AM 66.2 °F - 64.4 °F 94% 30.05 in 7.0 mi SE 5.8 mph - N/A   Clear
2:55 AM 66.2 °F - 64.4 °F 94% 30.05 in 7.0 mi SSE 5.8 mph - N/A   Clear
3:15 AM 66.2 °F - 64.4 °F 94% 30.04 in 10.0 mi SSE 5.8 mph - N/A   Clear
3:35 AM 66.2 °F - 64.4 °F 94% 30.05 in 10.0 mi SSE 5.8 mph - N/A   Clear
3:55 AM 66.2 °F - 62.6 °F 88% 30.04 in 10.0 mi SSE 4.6 mph - N/A   Clear
4:15 AM 64.4 °F - 62.6 °F 94% 30.04 in 10.0 mi SSE 6.9 mph - N/A   Clear
4:35 AM 64.4 °F - 62.6 °F 94% 30.04 in 7.0 mi SSE 6.9 mph - N/A   Clear
4:55 AM 64.4 °F - 64.4 °F 100% 30.04 in 10.0 mi SSE 6.9 mph - N/A   Clear
5:15 AM 66.2 °F - 64.4 °F 94% 30.04 in 10.0 mi SE 6.9 mph - N/A   Clear
5:35 AM 66.2 °F - 64.4 °F 94% 30.04 in 7.0 mi SSE 6.9 mph - N/A   Clear
6:15 AM 68.0 °F - 66.2 °F 94% 30.05 in 10.0 mi South 10.4 mph - N/A   Clear
6:55 AM 68.0 °F - 66.2 °F 94% 30.04 in 7.0 mi South 9.2 mph - N/A   Clear
7:15 AM 69.8 °F - 66.2 °F 88% 30.04 in 10.0 mi South 10.4 mph - N/A   Clear
7:35 AM 69.8 °F - 66.2 °F 88% 30.04 in 10.0 mi South 11.5 mph - N/A   Clear
7:55 AM 69.8 °F - 66.2 °F 88% 30.05 in 10.0 mi South 10.4 mph - N/A   Scattered Clouds
8:55 AM 71.6 °F - 68.0 °F 88% 30.05 in 10.0 mi South 11.5 mph 17.3 mph N/A   Scattered Clouds
9:15 AM 71.6 °F - 68.0 °F 88% 30.04 in 10.0 mi South 11.5 mph - N/A   Scattered Clouds
9:35 AM 73.4 °F - 68.0 °F 83% 30.05 in 10.0 mi South 15.0 mph 20.7 mph N/A   Mostly Cloudy
9:55 AM 73.4 °F - 68.0 °F 83% 30.04 in 10.0 mi South 13.8 mph 23.0 mph N/A   Mostly Cloudy
10:15 AM 77.0 °F - 68.0 °F 74% 30.04 in 10.0 mi South 19.6 mph 28.8 mph N/A   Mostly Cloudy
10:55 AM 77.0 °F - 68.0 °F 74% 30.02 in 10.0 mi South 20.7 mph 27.6 mph N/A   Mostly Cloudy
11:35 AM 78.8 °F - 68.0 °F 69% 30.00 in 10.0 mi South 21.9 mph 27.6 mph N/A   Mostly Cloudy
11:55 AM 78.8 °F - 68.0 °F 69% 29.98 in 10.0 mi South 21.9 mph 28.8 mph N/A   Mostly Cloudy
12:15 PM 78.8 °F - 68.0 °F 69% 29.97 in 10.0 mi South 24.2 mph - N/A   Mostly Cloudy
12:35 PM 78.8 °F - 68.0 °F 69% 29.96 in 10.0 mi South 24.2 mph 33.4 mph N/A   Mostly Cloudy
12:55 PM 80.6 °F 83.2 °F 68.0 °F 65% 29.95 in 10.0 mi South 23.0 mph 31.1 mph N/A   Mostly Cloudy
1:15 PM 80.6 °F 83.2 °F 68.0 °F 65% 29.95 in 10.0 mi SSW 24.2 mph 31.1 mph N/A   Overcast
1:35 PM 80.6 °F 83.2 °F 68.0 °F 65% 29.94 in 10.0 mi South 21.9 mph 27.6 mph N/A   Overcast
1:55 PM 80.6 °F 83.2 °F 68.0 °F 65% 29.92 in 10.0 mi South 20.7 mph 26.5 mph N/A   Overcast
2:15 PM 80.6 °F 83.2 °F 68.0 °F 65% 29.91 in 10.0 mi South 21.9 mph 27.6 mph N/A   Overcast
2:35 PM 82.4 °F 85.4 °F 68.0 °F 62% 29.90 in 10.0 mi South 20.7 mph 28.8 mph N/A   Overcast
2:55 PM 80.6 °F 83.2 °F 68.0 °F 65% 29.88 in 10.0 mi South 23.0 mph 32.2 mph N/A   Overcast
3:15 PM 80.6 °F 83.2 °F 68.0 °F 65% 29.87 in 10.0 mi South 23.0 mph 26.5 mph N/A   Overcast
4:15 PM 80.6 °F 83.2 °F 68.0 °F 65% 29.84 in 10.0 mi South 19.6 mph 35.7 mph N/A   Overcast
4:35 PM 80.6 °F 83.2 °F 68.0 °F 65% 29.84 in 10.0 mi South 23.0 mph 31.1 mph N/A   Overcast
5:15 PM 80.6 °F 83.2 °F 68.0 °F 65% 29.82 in 10.0 mi South 25.3 mph 31.1 mph N/A   Overcast
5:35 PM 80.6 °F 82.7 °F 66.2 °F 61% 29.82 in 10.0 mi South 20.7 mph 33.4 mph N/A   Overcast
6:15 PM 78.8 °F - 66.2 °F 65% 29.82 in 10.0 mi South 25.3 mph 32.2 mph N/A Thunderstorm Overcast
6:35 PM 78.8 °F - 66.2 °F 65% 29.81 in 10.0 mi South 21.9 mph 29.9 mph N/A Thunderstorm Mostly Cloudy
7:15 PM 77.0 °F - 66.2 °F 69% 29.81 in 10.0 mi South 19.6 mph 31.1 mph N/A   Scattered Clouds
7:35 PM 78.8 °F - 68.0 °F 69% 29.80 in 10.0 mi South 23.0 mph 29.9 mph N/A   Scattered Clouds
7:55 PM 77.0 °F - 68.0 °F 74% 29.81 in 10.0 mi South 20.7 mph 32.2 mph N/A   Mostly Cloudy
8:15 PM 78.8 °F - 68.0 °F 69% 29.80 in 10.0 mi South 21.9 mph 32.2 mph N/A Thunderstorm Overcast
8:35 PM 77.0 °F - 68.0 °F 74% 29.82 in 10.0 mi SSW 26.5 mph 33.4 mph N/A   Overcast
8:55 PM 77.0 °F - 64.4 °F 65% 29.84 in 7.0 mi WNW 12.7 mph 28.8 mph N/A Rain , Thunderstorm Rain
9:15 PM 69.8 °F - 64.4 °F 83% 29.82 in 10.0 mi West 17.3 mph 23.0 mph N/A   Overcast
9:35 PM 68.0 °F - 64.4 °F 88% 29.86 in 1.0 mi West 32.2 mph 46.0 mph 0.52 in Rain , Thunderstorm Heavy Thunderstorms and Rain
9:55 PM 66.2 °F - 64.4 °F 94% 29.85 in 0.8 mi SSW 20.7 mph 52.9 mph 1.32 in Rain , Thunderstorm Heavy Thunderstorms and Rain
10:15 PM 68.0 °F - 64.4 °F 88% 29.87 in 1.0 mi SSW 23.0 mph 28.8 mph 0.55 in Rain , Thunderstorm Heavy Thunderstorms and Rain
11:15 PM 66.2 °F - 64.4 °F 94% 29.81 in 10.0 mi South 5.8 mph - N/A Thunderstorm Overcast
11:35 PM 66.2 °F - 64.4 °F 94% 29.84 in 10.0 mi South 9.2 mph - N/A Thunderstorm Thunderstorm